Regional & State Weather Roundups


619 
ASUS43 KEAX 110010
RWREAX
WEATHER ROUNDUP FOR EASTERN KANSAS AND NORTHWEST MISSOURI
NATIONAL WEATHER SERVICE KANSAS CITY/PLEASANT HILL MO
600 PM CST SUN DEC 10 2017
KSZ040-057-103>105-MOZ028-029-037-043-110100-
...KANSAS CITY METROPOLITAN AREA...
  
CITY           SKY/WX    TMP DP  RH WIND       PRES   REMARKS
K.C. INTL      CLEAR     50  24  36 NW3       30.13R                  
6HR MIN TEMP:  49; 6HR MAX TEMP:  56;                                
K.C. DOWNTOWN  CLEAR     51  24  34 CALM      30.13R                  
6HR MIN TEMP:  50; 6HR MAX TEMP:  58;                                
LEES SUMMIT    CLEAR     51  24  34 W5        30.14R                  
6HR MIN TEMP:  50; 6HR MAX TEMP:  56;                                
OLATHE - IXD   CLEAR     47  24  40 W5        30.15R                  
6HR MIN TEMP:  46; 6HR MAX TEMP:  57;                                
OLATHE - OJC   CLEAR     48  24  39 CALM      30.14R                  
6HR MIN TEMP:  47; 6HR MAX TEMP:  55;                                
LAWRENCE       CLEAR     43  23  45 CALM      30.14S                  
$$
 
MOZ001>008-011>017-020>025-030>033-038>040-044>046-053-054-110100-
...NORTHERN AND CENTRAL MISSOURI...
  
CITY           SKY/WX    TMP DP  RH WIND       PRES   REMARKS
ST. JOSEPH     CLEAR     38  23  55 CALM      30.13S                  
6HR MIN TEMP:  37; 6HR MAX TEMP:  56;                                
MOSBY          CLEAR     45  25  45 CALM      30.13S                  
WARRENSBURG    CLEAR     48  25  40 CALM      30.13S                  
WHITEMAN AFB   CLEAR     50  25  37 W3        30.10R                  
6HR MIN TEMP:  49; 6HR MAX TEMP:  55;                                
CLINTON        CLEAR     45  25  45 CALM      30.15R                  
SEDALIA        CLEAR     46  27  47 W6        30.14R                  
6HR MIN TEMP:  46; 6HR MAX TEMP:  55;                                
WARSAW         NOT AVBL                                               
CHILLICOTHE      N/A     44  25  47 VRB3      30.13R                  
6HR MIN TEMP:  44; 6HR MAX TEMP:  54;                                
KIRKSVILLE     CLEAR     42  26  53 W7        30.09R                  
6HR MIN TEMP:  42; 6HR MAX TEMP:  50;                                
$$
MOZ041-047>049-056>058-063>065-088>090-097-110100-
...EASTERN AND SOUTHERN MISSOURI...
  
CITY           SKY/WX    TMP DP  RH WIND       PRES   REMARKS
ST. LOUIS INTL CLOUDY    44  26  49 NW8       30.09R                  
6HR MIN TEMP:  44; 6HR MAX TEMP:  52;                                
SPIRIT OF STL  CLOUDY    40  25  55 W7        30.09R                  
COLUMBIA       CLEAR     44  25  47 W8        30.11R                  
JEFFERSON CITY CLEAR     48  25  40 CALM      30.12R                  
ROLLA          CLEAR     43  25  49 W6        30.12R                  
OSAGE BEACH    CLEAR     48  26  42 W3        30.14R                  
SPRINGFIELD    CLEAR     46  24  42 W7        30.14R                  
BRANSON        CLEAR     50  25  37 W6        30.17R                  
JOPLIN         CLEAR     50  23  34 SW7       30.17R                  
WEST PLAINS    CLEAR     50  22  33 W8        30.13R                  
$$
IAZ060-094-KSZ022-034>040-054-083-096-NEZ052-066-093-110100- 
...KANSAS...SOUTHEAST NEBRASKA AND IOWA...
  
CITY           SKY/WX    TMP DP  RH WIND       PRES   REMARKS
TOPEKA         CLEAR     52  22  30 W5        30.14S                  
6HR MIN TEMP:  52; 6HR MAX TEMP:  60;                                
MANHATTAN      CLEAR     54  19  25 W8        30.15S                  
EMPORIA        CLEAR     52  18  26 W5        30.16F                  
CHANUTE        CLEAR     49  22  34 W6        30.18R                  
WICHITA        PTCLDY    51  17  26 W7        30.20R                  
OMAHA          PTCLDY    42  23  46 CALM      30.11R                  
LINCOLN        CLEAR     44  20  38 CALM      30.13S                  
FALLS CITY     CLEAR     47  21  35 NW3       30.12S                  
LAMONI         CLEAR     38  23  55 W8        30.09R WCI  32          
DES MOINES     PTCLDY    41  25  53 NW6       30.09R                  
$$